Flag for Australia Weather past 2 weeks in Adelaide, South Australia, Australia

Now
57 °F

Clear.


Feels Like: 55 °F
Forecast: 57 / 72 °F
Wind: 8 mph from South

Location: Adelaide Airport

Current Time: Jan 27, 2015 at 3:11:08 AM

Latest Report: Jan 27, 2015 at 2:30 AM


Visibility: 10 mi

Pressure: 30.04 "Hg

Humidity: 67%

Dew point: 46 °F

Location of AdelaideLocation

Historic Weather in Adelaide — Graph

°F

Adelaide temperature yesterday

Maximum temperature yesterday: 70 °F (at 4:30 PM)
Minimum temperature yesterday: 59 °F (at 2:00 AM)
Average temperature yesterday: 63 °F

Past Weeks' High & Low Weather Summary

 TemperatureHumidityPressure
High90 °F (Jan 20, 1:00 PM)100% (Jan 12, 7:00 PM)30.09 "Hg (Jan 12, 7:00 PM)
Low55 °F (Jan 16, 4:30 AM)19% (Jan 20, 12:30 PM)29.47 "Hg (Jan 20, 1:00 PM)
Average68 °F61%29.83 "Hg
* Reported Jan 12 1:30 AM — Jan 27 1:30 AM, Adelaide, Weather by CustomWeather, © 2014

Note: Actual official high and low records may vary slightly from our data, if they occured in-between our weather recording intervals... More about our weather records

Advertising

Adelaide weather history for previous 24 hours

 ConditionsComfort  
Time TempWeatherWind HumidityBarometerVisibility
1:30 AM
Jan 27
57 °FClear.8 mph63%30.04 "Hg10 mi
1:00 AM57 °FClear.8 mph63%30.04 "Hg10 mi
12:30 AM57 °FClear.8 mph63%30.07 "Hg10 mi
12:00 AM57 °FClear.7 mph63%30.07 "Hg10 mi
11:30 PM
Jan 26
59 °FClear.7 mph55%30.07 "Hg10 mi
11:00 PM59 °FClear.7 mph59%30.07 "Hg10 mi
10:30 PM59 °FClear.9 mph59%30.07 "Hg10 mi
10:00 PM61 °FClear.10 mph55%30.07 "Hg10 mi
9:30 PM61 °FClear.13 mph55%30.07 "Hg10 mi
9:00 PM63 °FClear.13 mph49%30.07 "Hg10 mi
8:30 PM63 °FSunny.17 mph45%30.04 "Hg10 mi
8:00 PM64 °FSunny.15 mph40%30.04 "Hg10 mi
7:30 PM66 °FSunny.16 mph37%30.04 "Hg10 mi
7:00 PM68 °FSunny.15 mph33%30.01 "Hg10 mi
6:30 PM68 °FSunny.14 mph33%30.01 "Hg10 mi
6:00 PM70 °FSunny.14 mph33%30.01 "Hg10 mi
5:30 PM68 °FSunny.16 mph35%30.01 "Hg10 mi
5:00 PM68 °FSunny.12 mph38%30.01 "Hg10 mi
4:30 PM70 °FSunny.15 mph40%30.01 "Hg10 mi
4:00 PM68 °FSunny.14 mph38%30.01 "Hg10 mi
3:30 PM68 °FPartly sunny.14 mph38%30.01 "HgN/A
3:00 PM68 °FPartly sunny.14 mph40%30.04 "HgN/A
2:30 PM68 °FPartly sunny.12 mph40%30.04 "HgN/A
1:30 PM66 °FPartly sunny.14 mph43%30.04 "HgN/A
1:00 PM68 °FBroken clouds.12 mph40%30.04 "HgN/A
12:30 PM66 °FBroken clouds.12 mph40%30.04 "HgN/A
12:00 PM68 °FBroken clouds.9 mph40%30.04 "HgN/A
11:30 AM66 °FBroken clouds.14 mph43%30.07 "HgN/A
11:00 AM66 °FBroken clouds.12 mph46%30.07 "HgN/A
10:30 AM66 °FBroken clouds.12 mph43%30.07 "HgN/A
10:00 AM66 °FPartly sunny.10 mph46%30.07 "HgN/A
9:30 AM64 °FPartly sunny.12 mph52%30.07 "HgN/A
9:00 AM63 °FPartly sunny.12 mph52%30.07 "HgN/A
8:30 AM63 °FPartly sunny.13 mph56%30.07 "HgN/A
8:00 AM61 °FPartly sunny.10 mph59%30.07 "HgN/A
7:30 AM59 °FPartly sunny.10 mph68%30.07 "HgN/A
7:00 AM59 °FPartly sunny.10 mph63%30.04 "HgN/A
6:30 AM59 °FPassing clouds.8 mph68%30.04 "HgN/A
6:00 AM59 °FPassing clouds.8 mph68%30.04 "HgN/A
5:30 AM59 °FPassing clouds.7 mph68%30.01 "HgN/A
5:00 AM61 °FPassing clouds.7 mph63%30.01 "HgN/A
4:30 AM61 °FPassing clouds.6 mph59%30.01 "HgN/A
4:00 AM61 °FPassing clouds.5 mph59%30.01 "HgN/A
3:30 AM61 °FPassing clouds.5 mph63%30.01 "HgN/A
3:00 AM61 °FPassing clouds.6 mph59%30.01 "HgN/A
Weather by CustomWeather, © 2014

See weather overviewHow to use our weather pages